Spokane Felts, WA
on Friday, December 14, 2012

Friday
Previous Day Next Day
Daily Summary
 ActualAverageRecord
Temperature
Mean Temperature °F 29°F  
Max Temperature 33°F 35°F 57°F (2002)
Min Temperature 27°F 24°F 7°F (2008)
Degree Days
Heating Degree Days 35 36  
Month to date heating degree days 345 483  
Since 1 July heating degree days 1618 2057  
Cooling Degree Days 0 0  
Month to date cooling degree days 0 0  
Year to date cooling degree days 509 406  
Moisture
Dew Point 26°F   
Average Humidity 82    
Maximum Humidity 85    
Minimum Humidity 78    
Precipitation
Precipitation 0.05 in 0.09 in 0.55 in (2002)
Month to date precipitation 0.81 1.18  
Year to date precipitation 19.57 16.40  
Wind
Wind Speed 1 mph   
Max Wind Speed 6 mph   
Max Gust Speed 7 mph   
Visibility 5 miles   
Events Snow   

Key: T is trace of precipitation, MM is missing value
Source: NWS Daily Summary
Time(PST)TemperatureDew PointHumidity Pressure Visibility Wind DirectionWind SpeedGust SpeedPrecipitationEvents Conditions
12:19 AM 28.4°F 24.8°F 86% 29.82 in 7.0 miles Calm Calm - N/A   Scattered Clouds
12:29 AM 28.4°F 24.8°F 86% 29.82 in 8.0 miles Calm Calm - N/A   Mostly Cloudy
12:53 AM 28.9°F 25.0°F 85% 29.86 in 7.0 miles Calm Calm - N/A   Overcast
1:46 AM 28.4°F 24.8°F 86% 29.81 in 5.0 miles West 3.5 mph - N/A   Scattered Clouds
1:53 AM 28.0°F 24.1°F 85% 29.85 in 6.0 miles Calm Calm - N/A   Scattered Clouds
2:15 AM 28.4°F 24.8°F 86% 29.80 in 5.0 miles Calm Calm - N/A   Mostly Cloudy
2:53 AM 28.0°F 25.0°F 88% 29.83 in 6.0 miles Calm Calm - N/A   Overcast
3:39 AM 28.4°F 24.8°F 86% 29.78 in 9.0 miles NE 4.6 mph - N/A   Scattered Clouds
3:53 AM 28.0°F 24.1°F 85% 29.82 in 10.0 miles NE 3.5 mph - N/A   Partly Cloudy
4:53 AM 28.0°F 24.1°F 85% 29.81 in 9.0 miles NE 3.5 mph - N/A   Clear
5:53 AM 28.0°F 25.0°F 88% 29.81 in 8.0 miles Calm Calm - N/A   Mostly Cloudy
6:53 AM 28.0°F 24.1°F 85% 29.81 in 10.0 miles NE 3.5 mph - N/A   Mostly Cloudy
7:53 AM 28.9°F 25.0°F 85% 29.82 in 8.0 miles NE 3.5 mph - N/A   Mostly Cloudy
8:25 AM 28.4°F 24.8°F 86% 29.78 in 2.0 miles Calm Calm - 0.00 in Snow Light Snow
8:53 AM 30.0°F 25.0°F 82% 29.83 in 3.0 miles Calm Calm - 0.00 in Snow Light Snow
9:00 AM 30.2°F 26.6°F 86% 29.78 in 1.5 miles Calm Calm - 0.00 in Snow Light Snow
9:53 AM 30.9°F 26.1°F 82% 29.83 in 3.0 miles Calm Calm - 0.00 in Snow Light Snow
9:55 AM 30.2°F 26.6°F 86% 29.78 in 2.5 miles Calm Calm - 0.00 in Snow Light Snow
10:09 AM 30.2°F 26.6°F 86% 29.78 in 3.0 miles Calm Calm - 0.00 in Snow Light Snow
10:53 AM 30.9°F 27.0°F 85% 29.83 in 2.0 miles Calm Calm - 0.00 in Snow Light Snow
11:53 AM 32.0°F 28.0°F 85% 29.83 in 2.0 miles Calm Calm - 0.01 in Snow Light Snow
11:55 AM 32.0°F 28.4°F 87% 29.78 in 1.2 miles Calm Calm - 0.01 in Snow Light Snow
12:02 PM 32.0°F 28.4°F 87% 29.78 in 1.0 miles Calm Calm - 0.01 in Snow Light Snow
12:53 PM 32.0°F 28.0°F 85% 29.83 in 3.0 miles Calm Calm - 0.01 in Snow Light Snow
1:53 PM 33.1°F 28.0°F 82% 29.84 in 1.5 miles Calm Calm - 0.01 in Snow Light Snow
2:53 PM 32.0°F 28.0°F 85% 29.85 in 2.0 miles Calm Calm - 0.01 in Snow Light Snow
3:53 PM 32.0°F 28.0°F 85% 29.88 in 3.0 miles Calm Calm - 0.00 in Snow Light Snow
4:53 PM 32.0°F 28.9°F 88% 29.89 in 3.0 miles Calm Calm - 0.00 in   Overcast
5:53 PM 32.0°F 28.0°F 85% 29.91 in 5.0 miles Calm Calm - 0.00 in Snow Light Snow
5:56 PM 32.0°F 28.4°F 87% 29.85 in 2.0 miles Calm Calm - 0.00 in Snow Light Snow
6:53 PM 32.0°F 28.9°F 88% 29.91 in 2.0 miles Calm Calm - 0.01 in   Overcast
7:00 PM 32.0°F 28.4°F 87% 29.86 in 5.0 miles Calm Calm - N/A   Overcast
7:53 PM 32.0°F 28.0°F 85% 29.93 in 5.0 miles WSW 3.5 mph - N/A   Overcast
8:53 PM 32.0°F 27.0°F 82% 29.93 in 10.0 miles Calm Calm - N/A   Overcast
9:39 PM 32.0°F 26.6°F 80% 29.89 in 10.0 miles WNW 3.5 mph - N/A   Overcast
9:53 PM 32.0°F 27.0°F 82% 29.94 in 10.0 miles WSW 3.5 mph - N/A   Overcast
10:53 PM 32.0°F 27.0°F 82% 29.96 in 10.0 miles Variable 3.5 mph - N/A   Overcast
11:53 PM 32.0°F 27.0°F 82% 29.96 in 10.0 miles Calm Calm - N/A   Overcast
Moon Phase
Dec. 14 Dec. 20 Dec. 28 Jan. 04 Jan. 11
Sunrise:07:30 AM (PST) Moon Rise:08:35 AM (PST)12/14
Sunset:03:57 PM (PST) Moon Set:06:01 PM (PST)12/14

Copyright © 2014 The Weather Underground, Inc.